Location: Karcze
(52.0945°N, 22.4786°E)
Time: 20:29:27
(UTC+00:00)

Transit 2A Rocket - Pass Details

Date: 01 August 2021
Orbit: 586 x 917 km, 66.7° (Epoch: 27 September)

Event Time Altitude Azimuth Distance (km) Brightness Sun altitude
Rises 17:20:41 0° 308° (NW) 3,075 9.8 7.4°
Reaches altitude 10° 17:23:47 10° 329° (NNW) 2,225 8.4 7.0°
Maximum altitude 17:27:04 17° 9° (N) 1,865 7.2 6.5°
Drops below altitude 10° 17:30:31 10° 49° (NE) 2,369 7.3 6.0°
Sets 17:33:58 0° 69° (ENE) 3,369 7.9 5.5°
